Terminal Aerodrome Forecast
Issued by NWS Jackson, MS

Home | Current Version | Previous Version | Text Only | Print | Product List | Glossary On
Versions: 1 2 3 4 5 6 7 8 9 10 11 12 13 14
000
FTUS44 KJAN 312300
TAFJAN
TAF
KJAN 312328Z 0100/0124 12005KT P6SM BKN120
     FM011000 15010KT P6SM -SHRA BKN030
     FM011500 20012KT 3SM -SHRA OVC010=

USA.gov is the U.S. government's official web portal to all federal, state and local government web resources and services.